Flag for Germany Weather past 2 weeks in Fürth, Bavaria, Germany

Now
79 °F

Sunny.


Feels Like: 79 °F
Forecast: 59 / 79 °F
Wind: 6 mph from North

Location: Nuernberg

Current Time: Jul 22, 2014 at 10:28:19 PM

Latest Report: Jul 22, 2014 at 6:50 PM


Visibility: 10 mi

Pressure: 29.95 "Hg

Humidity: 42%

Dew point: 54 °F

Location of FürthLocation

Historic Weather in Fürth — Graph

°F

Fürth temperature yesterday

Maximum temperature yesterday: 77 °F (at 3:50 PM)
Minimum temperature yesterday: 63 °F (at 6:20 AM)
Average temperature yesterday: 70 °F

Past Weeks' High & Low Weather Summary

 TemperatureHumidityPressure
High90 °F (Jul 19, 3:20 PM)100% (Jul 8, 5:50 AM)30.18 "Hg (Jul 8, 5:50 AM)
Low54 °F (Jul 9, 4:50 AM)26% (Jul 19, 5:50 PM)29.71 "Hg (Jul 9, 3:50 AM)
Average67 °F75%29.94 "Hg
* Reported Jul 7 6:20 PM — Jul 22 6:50 PM, Fürth, Weather by CustomWeather, © 2014

Note: Actual official high and low records may vary slightly from our data, if they occured in-between our weather recording intervals... More about our weather records

Advertising

Fürth weather history for previous 24 hours

 ConditionsComfort  
Time TempWeatherWind HumidityBarometerVisibility
6:50 PM
Jul 22
79 °FSunny.6 mph42%29.95 "Hg10 mi
6:20 PM81 °FPassing clouds.7 mph39%29.92 "HgN/A
5:50 PM79 °FSunny.6 mph51%29.92 "Hg10 mi
5:20 PM79 °FPassing clouds.6 mph54%29.92 "HgN/A
4:50 PM79 °FPartly sunny.6 mph58%29.92 "HgN/A
4:20 PM79 °FPartly sunny.7 mph54%29.92 "HgN/A
3:50 PM77 °FPartly sunny.10 mph57%29.92 "HgN/A
3:20 PM79 °FPartly sunny.9 mph61%29.92 "HgN/A
2:50 PM79 °FBroken clouds.9 mph65%29.92 "HgN/A
2:20 PM77 °FBroken clouds.7 mph69%29.92 "HgN/A
1:50 PM77 °FBroken clouds.7 mph74%29.92 "HgN/A
1:20 PM75 °FPartly sunny.7 mph78%29.92 "HgN/A
12:50 PM73 °FPartly sunny.3 mph83%29.92 "HgN/A
12:20 PM72 °FBroken clouds.2 mph88%29.92 "HgN/A
11:50 AM72 °FBroken clouds.1 mph83%29.92 "HgN/A
11:20 AM70 °FBroken clouds.2 mph88%29.92 "HgN/A
10:50 AM68 °FPartly sunny.2 mph94%29.92 "HgN/A
10:20 AM68 °FLight rain. Broken clouds.5 mph94%29.89 "Hg3 mi
9:50 AM68 °FLight rain. More clouds than sun.1 mph94%29.89 "Hg3 mi
9:20 AM66 °FLight rain. More clouds than sun.1 mph100%29.89 "Hg6 mi
8:50 AM66 °FPartly sunny.2 mph100%29.89 "Hg6 mi
8:20 AM66 °FLight rain. Partly sunny.1 mph94%29.89 "Hg6 mi
7:50 AM66 °FLight rain. Partly sunny.2 mph94%29.89 "HgN/A
7:20 AM66 °FSunny.2 mph94%29.89 "Hg10 mi
6:50 AM64 °FPartly sunny.1 mph100%29.89 "HgN/A
6:20 AM64 °FLight rain. Passing clouds.1 mph100%29.89 "HgN/A
5:50 AM64 °FFog.2 mph100%29.86 "Hg3 mi
5:20 AM66 °FFog.1 mph94%29.86 "Hg3 mi
4:50 AM66 °FFog.2 mph100%29.86 "Hg3 mi
4:20 AM66 °FPartly cloudy.2 mph100%29.86 "Hg6 mi
3:50 AM66 °FPassing clouds.3 mph100%29.86 "Hg5 mi
3:20 AM66 °FLight rain. Passing clouds.2 mph100%29.83 "Hg4 mi
2:50 AM66 °FLight rain. Clear.1 mph100%29.83 "Hg4 mi
2:20 AM66 °FSprinkles. Passing clouds.1 mph100%29.86 "Hg4 mi
1:50 AM68 °FSprinkles. Passing clouds.1 mph94%29.86 "Hg5 mi
1:20 AM68 °FLots of rain. Passing clouds.2 mph94%29.86 "Hg4 mi
12:50 AM68 °FPassing clouds.2 mph94%29.86 "HgN/A
12:20 AM68 °FLight rain. Passing clouds.2 mph94%29.86 "HgN/A
11:50 PM
Jul 21
70 °FLight rain. Passing clouds.2 mph83%29.86 "HgN/A
11:20 PM72 °FPassing clouds.1 mph78%29.86 "HgN/A
10:50 PM72 °FLight rain. Passing clouds.2 mph78%29.86 "HgN/A
10:20 PM73 °FClear.3 mph74%29.86 "Hg10 mi
Weather by CustomWeather, © 2014

See weather overviewHow to use our weather pages